Tracking 27111 objects as of 29-Mar-2023
HD Live streaming from Space Station
objects crossing your sky now

ION SCV-007

Track ION SCV-007 now!
10-day predictions


NORAD ID: 55060
Int'l Code: 2023-001BD
Perigee: 643.6 km
Apogee: 662.9 km
Inclination: 98.1 °
Period: 97.6 minutes
Semi major axis: 7024 km
RCS: Unknown
Launch date: January 3, 2023
Source: Italy (IT)
Launch site: AIR FORCE EASTERN TEST RANGE (AFETR)
Your satellite tracking list
Your tracking list is empty




NASA's NSSDC Master Catalog

Two Line Element Set (TLE):
1 55060U 23001BD  23087.59761579  .00001124  00000-0  17570-3 0  9992
2 55060  98.0575 148.8912 0013771 150.7402 209.4580 14.74701105 12666
Source of the keplerian elements: AFSPC